Location: Unspecified
(33.6682°S, 0.0000°E)
Time: 13:30:48
(UTC+00:00)

Vanguard 1 - Visible Passes

Search period start: 25 June 2019 00:00
Search period end: 05 July 2019 00:00
Orbit: 654 x 3830 km, 34.2° (Epoch: 24 June)

Date Brightness Start Highest point End Pass type
(mag) Time Alt. Az. Time Alt. Az. Time Alt. Az.
25 Jun 12.3 18:53:23 10° WSW 19:05:54 72° NNW 19:25:01 15° ENE visible
25 Jun 13.3 21:15:49 10° W 21:31:02 39° NW 21:37:54 33° N visible
25 Jun 14.2 23:49:18 10° WNW 00:14:22 - N 23:50:48 11° WNW visible
26 Jun 12.5 19:14:33 10° WSW 19:27:21 63° NNW 19:47:08 13° NE visible
26 Jun 13.5 21:37:56 10° W 21:52:25 31° NW 22:00:06 26° N visible
27 Jun 11.8 17:15:06 10° W 17:24:39 84° NNW 17:42:56 10° ENE visible
27 Jun 12.7 19:35:49 10° W 19:48:47 53° NNW 20:09:42 10° NE visible
27 Jun 13.8 22:00:43 10° W 22:13:48 24° NW 22:23:50 17° N visible
28 Jun 12.0 17:36:09 10° W 17:46:01 77° NNW 18:04:42 10° ENE visible
28 Jun 13.0 19:57:16 10° W 20:10:14 44° NNW 20:30:15 10° NNE visible
28 Jun 14.0 22:24:50 10° WNW 22:35:14 17° NW 22:47:12 10° N visible
29 Jun 12.2 17:57:11 10° W 18:07:23 68° NNW 18:26:14 10° ENE visible
29 Jun 13.3 20:18:57 10° W 20:31:40 36° NNW 20:50:18 10° NNE visible
29 Jun 14.2 22:53:54 10° NW 22:56:47 10° NW 22:59:45 10° NW visible
30 Jun 12.4 18:18:19 10° W 18:28:46 58° NNW 18:47:29 10° NE visible
30 Jun 13.6 20:41:06 10° W 20:53:08 28° NW 21:09:44 10° NNE visible
01 Jul 12.7 18:39:33 10° W 18:50:08 48° NNW 19:08:22 10° NE visible
01 Jul 13.8 21:04:02 10° WNW 21:14:38 20° NW 21:28:16 10° N visible
02 Jul 13.0 19:00:59 10° W 19:11:34 39° NNW 19:28:49 10° NNE visible
02 Jul 14.1 21:28:42 10° WNW 21:36:13 14° NW 21:45:01 10° NNW visible
03 Jul 13.3 19:22:44 10° W 19:33:01 31° NNW 19:48:45 10° NNE visible
04 Jul 12.3 17:22:28 10° W 17:30:55 52° NNW 17:46:19 10° NE visible
04 Jul 13.6 19:45:01 10° WNW 19:54:31 23° NNW 20:07:58 10° N visible
